When you browse on this site, cookies collect data to enhance your experience and personalize the content and advertising you see.
Visit our Privacy Policy to learn more. By continuing to use the site, you agree to this use of cookies and data.
  • In Hungary
  • List of Countries
  • For 7 days
  • Water Temperature
  • Weather Map
  • News
  • Weather Widgets
  • user-avatar
    Login

    Hourly Weather Horoshevskiy

    Today, 27 February, Thursday

    Time Temperature Precipitation Wind Pressure Humidity
    00:00 +2°C° 0.1 mm 2 mps 728 mmHg 97%
    01:00 +1°C° 0.1 mm 3 mps 727 mmHg 97%
    02:00 +2°C° 0 mm 2 mps 727 mmHg 97%
    03:00 0°C° 0 mm 3 mps 727 mmHg 97%
    04:00 0°C° 0 mm 3 mps 727 mmHg 96%
    05:00 -1°C° 0 mm 4 mps 726 mmHg 96%
    06:00 -1°C° 0 mm 4 mps 726 mmHg 96%
    07:00 -1°C° 0 mm 5 mps 726 mmHg 96%
    08:00 -1°C° 0 mm 5 mps 726 mmHg 96%
    09:00 0°C° 0 mm 5 mps 726 mmHg 97%
    10:00 0°C° 0 mm 5 mps 726 mmHg 97%
    11:00 +1°C° 0 mm 5 mps 726 mmHg 98%
    12:00 +1°C° 0.3 mm 4 mps 726 mmHg 98%
    13:00 +2°C° 0.3 mm 3 mps 726 mmHg 98%
    14:00 +2°C° 0.3 mm 3 mps 726 mmHg 99%
    15:00 +2°C° 0.5 mm 3 mps 726 mmHg 99%
    16:00 +2°C° 0.5 mm 2 mps 726 mmHg 99%
    17:00 +2°C° 0.5 mm 2 mps 726 mmHg 99%
    18:00 +2°C° 0.3 mm 2 mps 726 mmHg 99%
    19:00 +2°C° 0.3 mm 2 mps 726 mmHg 98%
    20:00 +2°C° 0.3 mm 2 mps 726 mmHg 98%
    21:00 +2°C° 0.4 mm 2 mps 726 mmHg 98%
    22:00 +2°C° 0.4 mm 2 mps 726 mmHg 97%
    23:00 +2°C° 0.4 mm 2 mps 726 mmHg 97%

    Tomorrow, 28 February, Friday

    Time Temperature Precipitation Wind Pressure Humidity
    00:00 +1°C° 0.1 mm 2 mps 726 mmHg 96%
    01:00 +1°C° 0.1 mm 2 mps 726 mmHg 95%
    02:00 +1°C° 0.1 mm 2 mps 726 mmHg 95%
    03:00 +1°C° 0 mm 2 mps 726 mmHg 95%
    04:00 -1°C° 0 mm 3 mps 726 mmHg 96%
    05:00 -1°C° 0 mm 3 mps 726 mmHg 96%
    06:00 -1°C° 0.5 mm 3 mps 726 mmHg 95%
    07:00 -2°C° 0.5 mm 4 mps 726 mmHg 94%
    08:00 -2°C° 0.5 mm 4 mps 726 mmHg 94%
    09:00 -2°C° 0.4 mm 5 mps 726 mmHg 92%
    10:00 -2°C° 0.4 mm 5 mps 726 mmHg 91%
    11:00 -2°C° 0.4 mm 5 mps 726 mmHg 90%
    12:00 -1°C° 0.2 mm 5 mps 726 mmHg 88%
    13:00 -1°C° 0.2 mm 5 mps 727 mmHg 86%
    14:00 -1°C° 0.2 mm 4 mps 728 mmHg 84%
    15:00 -1°C° 0 mm 4 mps 729 mmHg 82%
    16:00 -1°C° 0 mm 5 mps 730 mmHg 79%
    17:00 -2°C° 0 mm 5 mps 731 mmHg 77%
    18:00 -2°C° 0 mm 5 mps 731 mmHg 78%
    19:00 -3°C° 0 mm 4 mps 732 mmHg 78%
    20:00 -3°C° 0 mm 4 mps 732 mmHg 79%
    21:00 -3°C° 0 mm 4 mps 733 mmHg 79%
    22:00 -3°C° 0 mm 4 mps 733 mmHg 79%
    23:00 -4°C° 0 mm 5 mps 734 mmHg 79%

    Day after tomorrow, 29 February, Saturday

    Time Temperature Precipitation Wind Pressure Humidity
    00:00 -4°C° 0 mm 5 mps 734 mmHg 80%
    01:00 -4°C° 0 mm 5 mps 734 mmHg 81%
    02:00 -4°C° 0 mm 5 mps 735 mmHg 81%
    03:00 -4°C° 0 mm 5 mps 735 mmHg 82%
    04:00 -3°C° 0 mm 4 mps 735 mmHg 83%
    05:00 -3°C° 0 mm 4 mps 735 mmHg 84%
    06:00 -3°C° 0 mm 4 mps 736 mmHg 84%
    07:00 -4°C° 0 mm 5 mps 736 mmHg 83%
    08:00 -4°C° 0 mm 5 mps 736 mmHg 83%
    09:00 -2°C° 0 mm 5 mps 736 mmHg 80%
    10:00 -1°C° 0 mm 5 mps 737 mmHg 76%
    11:00 0°C° 0 mm 5 mps 737 mmHg 73%
    12:00 0°C° 0 mm 5 mps 737 mmHg 71%
    13:00 0°C° 0 mm 5 mps 738 mmHg 69%
    14:00 0°C° 0 mm 5 mps 738 mmHg 67%
    15:00 -1°C° 0 mm 4 mps 738 mmHg 70%
    16:00 0°C° 0 mm 3 mps 738 mmHg 72%
    17:00 -1°C° 0 mm 2 mps 739 mmHg 74%
    18:00 -1°C° 0 mm 2 mps 739 mmHg 76%
    19:00 -2°C° 0 mm 2 mps 740 mmHg 77%
    20:00 -2°C° 0 mm 2 mps 740 mmHg 78%
    21:00 -2°C° 0 mm 2 mps 741 mmHg 79%
    22:00 -2°C° 0 mm 2 mps 741 mmHg 80%
    23:00 -2°C° 0 mm 2 mps 741 mmHg 81%

    1 March, Sunday

    Time Temperature Precipitation Wind Pressure Humidity
    00:00 -2°C° 0 mm 2 mps 742 mmHg 81%
    01:00 -2°C° 0 mm 2 mps 742 mmHg 82%
    02:00 -2°C° 0 mm 2 mps 742 mmHg 82%
    03:00 -2°C° 0 mm 2 mps 743 mmHg 83%
    04:00 -2°C° 0 mm 2 mps 743 mmHg 83%
    05:00 -2°C° 0 mm 2 mps 743 mmHg 83%
    06:00 -2°C° 0 mm 2 mps 743 mmHg 83%
    07:00 -2°C° 0 mm 3 mps 744 mmHg 82%
    08:00 -2°C° 0 mm 3 mps 744 mmHg 81%
    09:00 -1°C° 0 mm 3 mps 744 mmHg 78%
    10:00 -1°C° 0 mm 4 mps 744 mmHg 75%
    11:00 0°C° 0 mm 4 mps 745 mmHg 72%
    12:00 +1°C° 0 mm 4 mps 744 mmHg 70%
    13:00 +1°C° 0 mm 4 mps 744 mmHg 69%
    14:00 +3°C° 0 mm 4 mps 744 mmHg 67%
    15:00 +1°C° 0 mm 4 mps 744 mmHg 72%
    16:00 0°C° 0 mm 4 mps 744 mmHg 76%
    17:00 -1°C° 0 mm 4 mps 743 mmHg 81%
    18:00 -1°C° 0 mm 4 mps 744 mmHg 81%
    19:00 -1°C° 0 mm 5 mps 744 mmHg 80%
    20:00 -2°C° 0 mm 5 mps 744 mmHg 80%
    21:00 -2°C° 0 mm 5 mps 744 mmHg 78%
    22:00 -3°C° 0 mm 6 mps 743 mmHg 76%
    23:00 -3°C° 0 mm 6 mps 743 mmHg 74%

    2 March, Monday

    Time Temperature Precipitation Wind Pressure Humidity
    00:00 -3°C° 0 mm 6 mps 743 mmHg 74%
    01:00 -3°C° 0 mm 6 mps 743 mmHg 75%
    02:00 -2°C° 0 mm 6 mps 743 mmHg 75%
    03:00 -2°C° 0 mm 6 mps 743 mmHg 74%
    04:00 -2°C° 0 mm 7 mps 742 mmHg 74%
    05:00 -2°C° 0 mm 7 mps 742 mmHg 73%
    06:00 -2°C° 0 mm 7 mps 742 mmHg 71%
    07:00 -2°C° 0 mm 7 mps 742 mmHg 70%
    08:00 -1°C° 0 mm 7 mps 742 mmHg 69%
    09:00 -1°C° 0 mm 7 mps 742 mmHg 66%
    10:00 0°C° 0 mm 7 mps 742 mmHg 64%
    11:00 +2°C° 0 mm 7 mps 742 mmHg 62%
    12:00 +2°C° 0 mm 7 mps 742 mmHg 62%
    13:00 +2°C° 0 mm 7 mps 742 mmHg 62%
    14:00 +3°C° 0 mm 7 mps 741 mmHg 62%
    15:00 +2°C° 0 mm 7 mps 741 mmHg 65%
    16:00 +1°C° 0 mm 6 mps 741 mmHg 68%
    17:00 0°C° 0 mm 5 mps 741 mmHg 72%
    18:00 -1°C° 0 mm 6 mps 741 mmHg 72%
    19:00 -1°C° 0 mm 6 mps 741 mmHg 72%
    20:00 -1°C° 0 mm 6 mps 741 mmHg 72%
    21:00 -1°C° 0 mm 6 mps 740 mmHg 72%
    22:00 -1°C° 0 mm 6 mps 740 mmHg 72%
    23:00 -1°C° 0 mm 7 mps 740 mmHg 72%

    3 March, Tuesday

    Time Temperature Precipitation Wind Pressure Humidity
    00:00 -1°C° 0 mm 7 mps 740 mmHg 74%
    01:00 -1°C° 0 mm 7 mps 740 mmHg 75%
    02:00 -1°C° 0 mm 7 mps 739 mmHg 77%
    03:00 -1°C° 0 mm 7 mps 739 mmHg 78%
    04:00 -2°C° 0 mm 7 mps 739 mmHg 80%
    05:00 -2°C° 0 mm 8 mps 739 mmHg 81%
    06:00 -2°C° 0 mm 8 mps 738 mmHg 82%
    07:00 -2°C° 0 mm 8 mps 738 mmHg 83%
    08:00 -3°C° 0 mm 9 mps 738 mmHg 85%
    09:00 -2°C° 0.3 mm 8 mps 738 mmHg 88%
    10:00 -1°C° 0.3 mm 8 mps 738 mmHg 92%
    11:00 -1°C° 0.3 mm 8 mps 738 mmHg 95%
    12:00 -1°C° 0.2 mm 7 mps 738 mmHg 95%
    13:00 -1°C° 0.2 mm 7 mps 738 mmHg 95%
    14:00 -1°C° 0.2 mm 6 mps 738 mmHg 95%
    15:00 -1°C° 0.1 mm 6 mps 738 mmHg 96%
    16:00 0°C° 0.1 mm 5 mps 739 mmHg 96%
    17:00 0°C° 0.1 mm 5 mps 739 mmHg 97%
    18:00 0°C° 0 mm 4 mps 739 mmHg 97%
    19:00 +1°C° 0 mm 3 mps 739 mmHg 97%
    20:00 +1°C° 0 mm 3 mps 740 mmHg 97%
    21:00 +2°C° 0 mm 2 mps 740 mmHg 96%
    22:00 +1°C° 0 mm 2 mps 740 mmHg 96%
    23:00 +2°C° 0 mm 1 mps 740 mmHg 96%
    Show more